Chatham, MA

10:12 PM EST on December 14, 2019 (GMT -0500)
Chatham Municipal

Weather History for KCQX - October, 2019

Change the Weather History Date:

Sunday, October 13, 2019

  Actual Average Record
Temperature  
Mean Temperature 57 °F -  
Max Temperature 64 °F 59 °F 71 °F (2016)
Min Temperature 51 °F 45 °F 37 °F (2012)
Degree Days  
Heating Degree Days 8    
Growing Degree Days 7 (Base 50)    
Moisture  
Dew Point 54 °F    
Average Humidity 91    
Maximum Humidity 100    
Minimum Humidity 75    
Precipitation  
Precipitation 0.00 in - - ()
Sea Level Pressure  
Sea Level Pressure 30.02 in    
Wind  
Wind Speed 2 mph (SSW)    
Max Wind Speed 6 mph    
Max Gust Speed -    
Visibility 8 miles    
Events      
Averages and records for this station are not official NWS values.
T = Trace of Precipitation, MM = Missing Value Source: NWS Daily Summary

Daily Weather History Graph

Daily Weather History Graph

Search for Another Location

Airport or City:

Astronomy

Oct. 13, 2019 Rise Set
Actual Time 6:49 AM EDT 6:02 PM EDT
Civil Twilight 6:21 AM EDT 6:30 PM EDT
Nautical Twilight 5:49 AM EDT 7:02 PM EDT
Astronomical Twilight 5:17 AM EDT 7:34 PM EDT
Moon 6:24 PM EDT (10/13) 6:19 AM EDT (10/13)
Length of Visible Light 12h 08m
Length of Day
11h 12m
Full, 100% of the Moon is Illuminated
Oct 13
Full
Oct 13
Full
Oct 21
Last Quarter
Oct 27
New
Nov 4
First Quarter

Hourly Weather History & Observations

Time (EDT) Temp. Dew Point Humidity Pressure Visibility Wind Dir Wind Speed Gust Speed Precip Events Conditions
12:52 AM 54.0 °F 53.1 °F 97% 29.96 in 5.0 mi Variable 3.5 mph - N/A   Overcast
1:04 AM 54.0 °F 54.0 °F 100% 29.96 in 2.5 mi North 4.6 mph - N/A   Overcast
1:21 AM 54.0 °F 54.0 °F 100% 29.96 in 1.8 mi Calm Calm - N/A   Overcast
1:29 AM 54.0 °F 54.0 °F 100% 29.96 in 1.8 mi Calm Calm - N/A   Overcast
1:52 AM 54.0 °F 54.0 °F 100% 29.96 in 3.0 mi Variable 3.5 mph - N/A   Overcast
2:37 AM 54.0 °F 53.1 °F 97% 29.97 in 10.0 mi Calm Calm - N/A   Overcast
2:52 AM 54.0 °F 53.1 °F 97% 29.97 in 10.0 mi Calm Calm - N/A   Overcast
3:31 AM 54.0 °F 53.1 °F 97% 29.98 in 2.0 mi NW 3.5 mph - N/A   Overcast
3:49 AM 53.6 °F 53.6 °F 100% 29.98 in 2.0 mi Variable 4.6 mph - N/A   Overcast
3:52 AM 54.0 °F 54.0 °F 100% 29.98 in 2.0 mi Variable 3.5 mph - N/A   Overcast
4:14 AM 54.0 °F 54.0 °F 100% 29.98 in 3.0 mi Calm Calm - N/A   Overcast
4:23 AM 54.0 °F 53.1 °F 97% 29.98 in 4.0 mi NNW 5.8 mph - N/A   Overcast
4:29 AM 54.0 °F 53.1 °F 97% 29.98 in 6.0 mi Calm Calm - N/A   Overcast
4:52 AM 54.0 °F 53.1 °F 97% 29.99 in 10.0 mi Calm Calm - N/A   Overcast
5:52 AM 54.0 °F 52.0 °F 93% 30.01 in 10.0 mi Calm Calm - N/A   Mostly Cloudy
6:17 AM 53.1 °F 51.1 °F 93% 30.01 in 10.0 mi Calm Calm - N/A   Partly Cloudy
6:52 AM 51.1 °F 50.0 °F 96% 30.02 in 7.0 mi Calm Calm - N/A   Clear
7:52 AM 54.0 °F 52.0 °F 93% 30.04 in 10.0 mi Calm Calm - N/A   Clear
8:52 AM 57.0 °F 53.1 °F 87% 30.06 in 10.0 mi Calm Calm - N/A   Scattered Clouds
9:52 AM 60.1 °F 53.1 °F 78% 30.06 in 10.0 mi Calm Calm - N/A   Mostly Cloudy
10:14 AM 60.1 °F 55.0 °F 83% 30.06 in 10.0 mi Variable 5.8 mph - N/A   Mostly Cloudy
10:24 AM 60.1 °F 54.0 °F 80% 30.06 in 10.0 mi SSW 4.6 mph - N/A   Scattered Clouds
10:52 AM 61.0 °F 54.0 °F 78% 30.07 in 10.0 mi Variable 5.8 mph - N/A   Clear
11:52 AM 62.1 °F 54.0 °F 75% 30.07 in 10.0 mi SSW 5.8 mph - N/A   Overcast
12:52 PM 63.0 °F 55.9 °F 78% 30.06 in 10.0 mi Variable 3.5 mph - N/A   Clear
1:52 PM 62.1 °F 55.9 °F 80% 30.06 in 10.0 mi Variable 4.6 mph - N/A   Clear
2:52 PM 63.0 °F 55.9 °F 78% 30.05 in 10.0 mi SSE 3.5 mph - N/A   Clear
3:18 PM 63.0 °F 55.9 °F 78% 30.05 in 10.0 mi SW 5.8 mph - N/A   Mostly Cloudy
3:41 PM 62.1 °F 55.9 °F 80% 30.05 in 10.0 mi SSW 3.5 mph - N/A   Partly Cloudy
3:52 PM 61.0 °F 55.0 °F 81% 30.05 in 10.0 mi SW 3.5 mph - N/A   Clear
4:52 PM 59.0 °F 55.0 °F 87% 30.06 in 10.0 mi South 4.6 mph - N/A   Clear
5:52 PM 57.0 °F 55.0 °F 93% 30.06 in 10.0 mi Calm Calm - N/A   Clear
6:52 PM 55.9 °F 54.0 °F 93% 30.07 in 10.0 mi Calm Calm - N/A   Clear
7:52 PM 55.0 °F 54.0 °F 96% 30.07 in 9.0 mi Calm Calm - N/A   Clear
8:52 PM 55.9 °F 55.0 °F 97% 30.07 in 9.0 mi SSE 3.5 mph - N/A   Clear
9:52 PM 55.0 °F 54.0 °F 96% 30.07 in 7.0 mi Calm Calm - N/A   Clear
10:52 PM 55.0 °F 54.0 °F 96% 30.06 in 6.0 mi Calm Calm - N/A   Clear
11:52 PM 54.0 °F 53.1 °F 97% 30.06 in 6.0 mi Calm Calm - N/A   Clear